Погода Завитая

Погода Завитая : погода сейчас, прогноз погоды и архив. Всё, что Вы хотите узнать о погоде Завитая!

Поиск расширенной информации на нашем сайте:

Другие новости

Новости СМИ2

Главная страница сайта

Новости сайта

02.10.2013

Напоминаем, что на нашем новом сайте вы можете получить высокодетализированные прогнозы погоды по пунктам России, СНГ и мира (включающие важные для авиации метеовеличины, такие как направление и скорость ветра, видимость, явления погоды, количество и форма облачности, нижняя и верхняя граница облачности), а также ознакомиться с разнообразными материалами по авиационной метеорологии и подборкой полезных ссылок на эту тему.

Сайт Метеоцентр.Азия посвящён разработке технологий оптимизации авиаметеорологического обслуживания, включая проектирование и перспективное создание нескольких автоматизированных авиаметеорологических систем:
- система выпуска высокодетальных прогностических карт явлений погоды для нижнего воздушного пространства по России и ближнему зарубежью;
- система верификации прогнозов TAF (выпускаемых синоптиками официальных АМСГ РФ и ближнего зарубежья) и AUTOTAF (выпускаемых сайтом Метеоцентр.Азия) - выявление ошибок, онлайн-сопоставление с фактической погодой METAR, автоматическое внесение коррективов в прогнозы при резком отклонении фактической погоды от прогноза, подсчёт оправдываемости прогнозов по элементам и в целом;
- система обработки, анализа и отображения авиаметеорологической информации для применения провайдерами метеорологической информации.

Рекомендуем: Преимущества использования технической соли для дорог vosopttorg.com.

Погода Завитая - сегодня

Время (UTC), дата Ветер
(°,м/с) 
Видим.   Явления Облачность Т
(°С)
Тd
(°С)
f(%) Тe
(°С)
Pmin
(гПа)
dP
(гПа)
Po
(мм)
O2
(г/м3)
Тmin Tmax R s Состояние
почвы
06 18.02.17 280 (З) 20000 м    ясно 
-17.9 -28.8 38 -23  1020.4  -0.3  741  321           
09 18.02.17 280 (З) 20000 м    ясно 
-20.9 -29.3 47 -21  1021.7  0.8  742  325           
12 18.02.17 220 (ЮЗ) 20000 м    ясно 
-23 -30.2 52 -26  1022.1  0.2  742  328    -17.5       
15 18.02.17 230 (ЮЗ) 20000 м    ясно 
-24.3 -29.7 61 -27  1022.3  742  330           
18 18.02.17 230 (ЮЗ) 20000 м    ясно 
-28.1 -32.2 68 -29  1022.3  -0.5  742  335           
21 18.02.17 тихо ()   20000 м    ясно 
-30.2 -34 69 -30  1021.5  -1  741  338           
00 19.02.17 120 (ЮВ) 20000 м    ясно 
-25.3 -30 65 -26  1020.1  -0.7  740  331  -31.5      25  равномерный
сухой снег
100% 
03 19.02.17 360 (С) 20000 м    ясно 
-17.8 -28.4 39 -18  1019.2  740  321           
06 19.02.17 340 (С) 20000 м    ясно 
-14.5 -29.4 27 -15  1016.9  -1.7  739  316           
09 19.02.17 300 (СЗ) 20000 м    1/0 верхняя 
[Ci fib]
-17.5 -29.6 34 -18  1017.2  739  320           
12 19.02.17 330 (СЗ) 20000 м    3/0 верхняя 
[Ci fib]
-20.8 -30.4 42 -24  1018.6  0.7  740  324    -13.8       
15 19.02.17 340 (С) 20000 м    3/0 верхняя 
[Ci fib]
-23.2 -31.2 48 -26  1019.4  0.6  740  328           
18 19.02.17 250 (З) 20000 м    3/0 верхняя 
[Ci fib]
-25.1 -31.5 55 -26  1019.5  -0.2  740  330           
21 19.02.17 260 (З) 20000 м    3/0 верхняя 
[Ci fib]
-24.2 -31.7 50 -25  1020  0.6  740  329           
00 20.02.17 270 (З) 20000 м    ясно 
-23.1 -32 44 -24  1021.3  1.4  741  328  -27.4      25  равномерный
сухой снег
100% 
03 20.02.17 270 (З) 20000 м    ясно 
-15.6 -29.3 30 -18  1021.1  0.7  742  319           
06 20.02.17 300 (СЗ) 20000 м    ясно 
-14.5 -26.9 34 -19  1021  0.1  742  317           
09 20.02.17 290 (З) 20000 м    ясно 
-16 -25.7 43 -18  1022.1  -0.8  743  320           
12 20.02.17 270 (З) 20000 м    ясно 
-18.4 -25 56 -19  1023.8  1.4  744  323    -13.9       
15 20.02.17 240 (ЮЗ) 20000 м    ясно 
-18.8 -24.8 59 -21  1024.4  0.5  744  324           
18 20.02.17 250 (З) 20000 м    ясно 
-19.1 -25.6 56 -19  1024.4  744  324           
21 20.02.17 260 (З) 20000 м    ясно 
-19.6 -25.6 59 -20  1025.7  1.2  745  325           
00 21.02.17 220 (ЮЗ) 20000 м    ясно 
-18 -25.1 54 -21  1026.3  0.8  746  323  -22.5      25  равномерный
сухой снег
100% 
03 21.02.17 250 (З) 20000 м    ясно 
-8.5 -23.8 28 -10  1024.7  -0.3  745  312           
06 21.02.17 200 (Ю) 20000 м    ясно 
-7.1 -21.8 30 -10  1023  -1.6  744  309           
Время (UTC), дата Ветер
(°,м/с) 
Видим.   Явления Облачность Т
(°С)
Тd
(°С)
f(%) Тe
(°С)
Pmin
(гПа)
dP
(гПа)
Po
(мм)
O2
(г/м3)
Тmin Tmax R s Состояние
почвы

Для получения пояснительной информации подведите курсор к названию столбца.

ПОГОДА Завитая - архив

Всё, что Вы хотите узнать о погоде Завитая - удобно и подробно!

Выберите нужную дату (начиная с 1 января 2015* года) и нажмите кнопку "Найти".
Будут отображены архивные сводки погоды по пункту Завитая, начиная с указанной даты.


Отображать данные в формате CSV (для использования в таблицах Excel)


Внимание! Наш архив погоды предназначен исключительно для личного некоммерческого использования в познавательных целях. Если Вам необходимы официальные справки о состоянии погоды (для производственных, юридических, коммерческих и т.п. целей), обращайтесь в органы Росгидромета.

*Примечание: данная дата относится к архиву по метеостанциям СССР (Россия, СНГ, Балтия).
Архив по метеостанциям Зарубежной Европы и Азии (кроме Китая) хранится 10 дней, по другим регионам земного шара (Китай, Африка, Америка, Австралия, Океания) - 1 день.

Завитая - район местоположения метеостанции


Название, широта, долгота, высота метеостанции:
Завитая 50.1°ш. 129.5°д. 241 м над ур. моря [Российская Федерация]

Дополнительная информация

В oтличие oт бoльшинства пoгoдных сайтoв мы публикуем пoдрoбную метеoинфoрмацию в детальнoм прoфессиoнальнoм фoрмате.

Характеристики температуры и влажнoсти вoздуха измеряются на высoте 2 м в тени вдали oт зданий и деревьев.
Скoрoсть ветра измеряется на высoте 10 м (на урoвне рoста челoвека скoрoсть ветра ниже в 1.5-2 раза). Если метеoстанция нахoдится в гoрoде или в лесу, тo скoрoсть ветра занижена на 2-4 м/с пo сравнению с oткрытым местoм. Скoрoсть ветра над акватoриями крупных рек и oзёр, а также на вершинах хoлмoв на 2-5 м/с выше, чем в oбычных услoвиях.
Атмoсфернoе давление в разных тoчках местнoсти мoжет значительнo oтличаться oт давления на метеoстанции, в зависимoсти oт услoвий рельефа (при пoдъёме на 10 м давление пoнижается примернo на 1 мм рт.ст.).